Total_Precipitation_Accumulation
0.52 0.54 0.62 0.71 0.91 0.99 1.03 1.16 1.22 1.42 1.60 1.78 1.95 1.99 1.97 1.94 1.94 1.87 1.78 1.71 1.75 1.78 1.82 1.78 1.88 1.93 1.90 1.81 1.72 1.63 1.57 1.43 1.31 1.37 1.44 1.35 1.10 0.92 0.84 0.81 0.78 0.69 0.58
0.56 0.61 0.67 0.74 0.91 1.04 1.03 1.13 1.25 1.36 1.43 1.56 1.72 1.83 1.90 1.96 1.97 1.89 1.91 1.77 1.69 1.67 1.76 1.80 1.76 1.75 1.76 1.75 1.68 1.63 1.60 1.55 1.43 1.42 1.52 1.55 1.48 1.16 0.86 0.78 0.77 0.76 0.73
0.62 0.65 0.70 0.77 0.91 1.05 1.09 1.10 1.22 1.36 1.42 1.56 1.76 1.90 2.08 2.13 2.20 2.03 1.88 1.81 1.73 1.62 1.61 1.73 1.77 1.72 1.68 1.66 1.62 1.54 1.48 1.47 1.38 1.24 1.40 1.50 1.33 1.10 0.91 0.79 0.71 0.69 0.75
0.63 0.70 0.71 0.78 0.90 0.99 1.11 1.15 1.27 1.39 1.44 1.61 1.79 1.80 1.95 1.99 1.95 1.84 1.77 1.70 1.69 1.65 1.56 1.56 1.63 1.69 1.63 1.55 1.54 1.55 1.49 1.49 1.47 1.30 1.14 1.14 1.08 1.09 0.96 0.84 0.79 0.74 0.71
0.61 0.68 0.71 0.71 0.81 0.92 1.06 1.16 1.30 1.44 1.51 1.57 1.74 1.80 1.75 1.79 1.87 1.91 1.85 1.76 1.70 1.64 1.57 1.53 1.54 1.56 1.55 1.47 1.44 1.49 1.52 1.53 1.50 1.40 1.19 1.05 0.92 0.88 0.98 0.85 0.77 0.85 0.82
0.65 0.68 0.67 0.65 0.77 0.91 1.04 1.16 1.28 1.39 1.51 1.55 1.65 1.82 1.78 1.72 1.78 1.91 1.96 1.88 1.79 1.70 1.57 1.46 1.46 1.44 1.41 1.39 1.36 1.37 1.37 1.41 1.44 1.38 1.27 1.19 1.13 0.96 0.95 0.90 0.73 0.74 0.79
0.66 0.70 0.61 0.64 0.70 0.82 0.98 1.12 1.28 1.32 1.38 1.46 1.56 1.65 1.78 1.75 1.69 1.69 1.75 1.88 1.86 1.73 1.63 1.54 1.42 1.38 1.33 1.29 1.29 1.32 1.32 1.28 1.32 1.35 1.27 1.17 1.07 0.99 1.02 1.11 1.02 0.89 0.80
0.60 0.64 0.61 0.63 0.66 0.71 0.84 1.00 1.13 1.29 1.40 1.45 1.50 1.55 1.65 1.78 1.69 1.64 1.56 1.65 1.71 1.59 1.51 1.56 1.48 1.39 1.35 1.33 1.31 1.28 1.28 1.31 1.26 1.21 1.21 1.22 1.12 1.07 1.13 1.25 1.35 1.30 1.00
0.64 0.60 0.61 0.65 0.64 0.71 0.77 0.91 1.01 1.17 1.37 1.50 1.51 1.54 1.58 1.66 1.68 1.64 1.60 1.58 1.58 1.56 1.54 1.55 1.55 1.48 1.48 1.50 1.48 1.42 1.32 1.31 1.32 1.28 1.21 1.22 1.20 1.15 1.11 1.14 1.28 1.54 1.42
0.70 0.67 0.62 0.68 0.68 0.71 0.75 0.81 0.97 1.08 1.23 1.43 1.59 1.58 1.53 1.52 1.62 1.68 1.69 1.65 1.60 1.58 1.56 1.57 1.59 1.55 1.48 1.54 1.58 1.52 1.42 1.41 1.37 1.38 1.36 1.24 1.16 1.19 1.22 1.25 1.23 1.29 1.43
0.71 0.66 0.59 0.59 0.65 0.70 0.80 0.84 0.92 1.04 1.15 1.25 1.43 1.54 1.53 1.52 1.58 1.65 1.62 1.64 1.62 1.60 1.54 1.48 1.52 1.59 1.56 1.50 1.55 1.53 1.47 1.45 1.37 1.35 1.40 1.30 1.20 1.28 1.33 1.38 1.38 1.32 1.34
0.64 0.64 0.57 0.56 0.62 0.72 0.80 0.90 0.95 0.94 1.03 1.14 1.26 1.40 1.50 1.51 1.54 1.54 1.58 1.63 1.63 1.59 1.51 1.46 1.46 1.50 1.53 1.50 1.50 1.49 1.46 1.45 1.40 1.35 1.38 1.37 1.30 1.31 1.34 1.42 1.43 1.34 1.26
0.62 0.66 0.65 0.60 0.61 0.70 0.78 0.86 0.95 0.90 0.92 1.08 1.18 1.32 1.44 1.43 1.44 1.39 1.46 1.64 1.73 1.68 1.55 1.49 1.48 1.52 1.57 1.51 1.44 1.50 1.47 1.38 1.32 1.30 1.35 1.37 1.37 1.31 1.28 1.37 1.42 1.36 1.30
0.55 0.64 0.74 0.70 0.63 0.66 0.70 0.73 0.85 0.90 0.91 0.97 1.11 1.24 1.35 1.34 1.31 1.30 1.31 1.45 1.60 1.68 1.62 1.50 1.47 1.53 1.63 1.63 1.57 1.61 1.56 1.43 1.30 1.21 1.22 1.30 1.43 1.44 1.44 1.46 1.43 1.46 1.53
0.51 0.64 0.74 0.74 0.74 0.75 0.75 0.72 0.75 0.87 0.94 0.93 1.02 1.10 1.22 1.30 1.27 1.24 1.27 1.36 1.45 1.49 1.54 1.55 1.49 1.52 1.74 1.95 2.05 1.90 1.61 1.42 1.35 1.18 1.10 1.19 1.45 1.66 1.82 1.86 1.71 1.72 1.87
0.47 0.54 0.62 0.69 0.77 0.84 0.86 0.83 0.80 0.84 0.93 0.92 0.97 1.01 1.15 1.29 1.30 1.23 1.26 1.38 1.47 1.46 1.48 1.51 1.51 1.48 1.67 2.07 2.26 1.87 1.49 1.34 1.31 1.25 1.12 1.13 1.39 1.56 1.73 1.88 1.84 1.85 2.03
0.43 0.45 0.54 0.67 0.75 0.83 0.85 0.87 0.84 0.87 0.93 0.94 0.96 1.01 1.13 1.21 1.28 1.26 1.29 1.39 1.47 1.47 1.46 1.46 1.46 1.44 1.50 1.87 2.07 1.80 1.45 1.31 1.25 1.20 1.16 1.17 1.25 1.40 1.43 1.58 1.64 1.63 1.79
0.46 0.45 0.53 0.65 0.67 0.74 0.78 0.82 0.78 0.90 0.96 0.97 0.96 1.00 1.08 1.12 1.23 1.28 1.30 1.41 1.47 1.43 1.42 1.42 1.41 1.38 1.44 1.74 1.97 1.78 1.47 1.37 1.30 1.26 1.17 1.11 1.15 1.27 1.45 1.55 1.53 1.43 1.47
0.49 0.51 0.54 0.62 0.61 0.67 0.73 0.78 0.74 0.83 0.91 0.96 0.91 0.93 1.00 1.05 1.15 1.22 1.29 1.37 1.47 1.42 1.37 1.34 1.38 1.35 1.37 1.66 1.97 1.84 1.50 1.43 1.34 1.32 1.23 1.09 1.05 1.26 1.45 1.43 1.40 1.33 1.35
0.44 0.51 0.53 0.56 0.57 0.62 0.66 0.69 0.74 0.77 0.85 0.91 0.83 0.87 0.93 0.98 1.07 1.14 1.22 1.30 1.32 1.34 1.35 1.30 1.30 1.29 1.26 1.49 1.88 1.97 1.53 1.42 1.34 1.33 1.28 1.32 1.27 1.37 1.40 1.29 1.38 1.49 1.36
0.43 0.46 0.48 0.52 0.57 0.60 0.61 0.63 0.71 0.77 0.80 0.89 0.83 0.86 0.89 0.93 1.01 1.09 1.11 1.19 1.25 1.26 1.32 1.31 1.27 1.24 1.24 1.34 1.63 1.96 1.65 1.47 1.35 1.34 1.33 1.27 1.42 1.43 1.39 1.36 1.34 1.52 1.44
0.43 0.46 0.48 0.51 0.53 0.55 0.59 0.62 0.66 0.72 0.79 0.84 0.83 0.89 0.93 0.94 0.97 1.03 1.02 1.06 1.17 1.23 1.27 1.31 1.33 1.30 1.26 1.32 1.53 1.76 1.70 1.57 1.37 1.31 1.22 1.20 1.39 1.43 1.45 1.42 1.47 1.52 1.48
0.47 0.48 0.51 0.49 0.51 0.54 0.60 0.66 0.69 0.70 0.78 0.81 0.81 0.88 0.96 0.98 0.99 0.99 1.00 1.04 1.10 1.19 1.23 1.24 1.24 1.27 1.24 1.33 1.58 1.55 1.57 1.56 1.45 1.45 1.48 1.42 1.51 1.53 1.42 1.39 1.45 1.40 1.30
0.50 0.52 0.54 0.53 0.53 0.54 0.60 0.68 0.72 0.70 0.76 0.80 0.80 0.85 0.90 0.96 1.00 0.97 0.92 0.93 1.03 1.15 1.17 1.18 1.13 1.11 1.15 1.35 1.53 1.44 1.40 1.47 1.54 1.59 1.57 1.55 1.58 1.53 1.47 1.40 1.29 1.19 1.21
0.53 0.54 0.56 0.58 0.59 0.57 0.63 0.69 0.71 0.70 0.74 0.73 0.72 0.78 0.80 0.90 1.00 0.99 0.93 0.92 0.93 1.11 1.23 1.18 1.13 1.16 1.28 1.45 1.60 1.52 1.48 1.51 1.58 1.67 1.71 1.64 1.59 1.57 1.45 1.27 1.14 1.10 1.18
0.55 0.56 0.57 0.59 0.64 0.63 0.65 0.69 0.71 0.68 0.68 0.69 0.68 0.71 0.75 0.81 0.91 0.94 0.96 1.05 1.04 1.07 1.08 1.08 1.13 1.11 1.27 1.40 1.42 1.44 1.50 1.60 1.67 1.71 1.69 1.51 1.34 1.29 1.23 1.15 1.09 1.06 1.07